| time (UTC) | temp F | wind direction | speed knots | gust knots | rain 1hr in | rain 24hr in | rain mn in | humidity % | barometer mb |
| 20260505010114 | 66 | 226 | 0.9 | 0.9 | 0.00 | 0.00 | 0.00 | 70 | 1005.4 |
| 20260505005609 | 67 | 240 | 2.6 | 2.6 | 0.00 | 0.00 | 0.00 | 69 | 1005.3 |
| 20260505005102 | 68 | 199 | 1.7 | 1.7 | 0.00 | 0.00 | 0.00 | 68 | 1005.4 |
| 20260505004558 | 68 | 155 | 0.9 | 0.9 | 0.00 | 0.00 | 0.00 | 66 | 1005.3 |
| 20260505004055 | 69 | 233 | 0.9 | 1.7 | 0.00 | 0.00 | 0.00 | 65 | 1005.4 |
| 20260505003553 | 69 | 145 | 0.9 | 1.7 | 0.00 | 0.00 | 0.00 | 64 | 1005.5 |
| 20260505003050 | 70 | 184 | 1.7 | 1.7 | 0.00 | 0.00 | 0.00 | 64 | 1005.6 |
| 20260505002549 | 70 | 182 | 3.5 | 5.2 | 0.00 | 0.00 | 0.00 | 63 | 1005.5 |
| 20260505002049 | 70 | 247 | 2.6 | 2.6 | 0.00 | 0.00 | 0.00 | 62 | 1005.6 |
| 20260505001545 | 71 | 136 | 2.6 | 5.2 | 0.00 | 0.00 | 0.00 | 61 | 1005.2 |
| 20260505001043 | 71 | 210 | 2.6 | 4.3 | 0.00 | 0.00 | 0.00 | 62 | 1005.4 |
| 20260505000540 | 71 | 217 | 4.3 | 7.0 | 0.00 | 0.00 | 0.00 | 63 | 1005.5 |
| 20260505000038 | 71 | 196 | 0.9 | 1.7 | 0.00 | 0.00 | 0.00 | 64 | 1005.4 |
| 20260504235534 | 71 | 203 | 1.7 | 2.6 | 0.00 | 0.00 | 0.00 | 65 | 1005.5 |
| 20260504235031 | 70 | 247 | 0.9 | 1.7 | 0.00 | 0.00 | 0.00 | 66 | 1005.5 |
| 20260504234528 | 70 | 170 | 0.9 | 0.9 | 0.00 | 0.00 | 0.00 | 67 | 1005.5 |
| 20260504234025 | 71 | 218 | 3.5 | 5.2 | 0.00 | 0.00 | 0.00 | 66 | 1005.7 |
| 20260504233520 | 71 | 199 | 2.6 | 2.6 | 0.00 | 0.00 | 0.00 | 66 | 1005.4 |
| 20260504233017 | 71 | 189 | 1.7 | 2.6 | 0.00 | 0.00 | 0.00 | 66 | 1005.6 |
| 20260504232515 | 71 | 188 | 1.7 | 2.6 | 0.00 | 0.00 | 0.00 | 66 | 1005.5 |
| 20260504232012 | 72 | 155 | 0.9 | 0.9 | 0.00 | 0.00 | 0.00 | 65 | 1005.6 |
| 20260504231508 | 72 | 232 | 1.7 | 4.3 | 0.00 | 0.00 | 0.00 | 65 | 1005.8 |
| 20260504231004 | 72 | 188 | 2.6 | 2.6 | 0.00 | 0.00 | 0.00 | 64 | 1005.6 |
| 20260504230501 | 73 | 197 | 0.0 | 0.9 | 0.00 | 0.00 | 0.00 | 65 | 1005.9 |
| 20260504230000 | 73 | 174 | 0.9 | 1.7 | 0.00 | 0.00 | 0.00 | 64 | 1005.9 |
| 20260504225457 | 73 | 177 | 1.7 | 2.6 | 0.00 | 0.00 | 0.00 | 64 | 1005.9 |
| 20260504224954 | 73 | 173 | 1.7 | 1.7 | 0.00 | 0.00 | 0.00 | 64 | 1006.0 |
| 20260504224450 | 72 | 161 | 0.9 | 1.7 | 0.00 | 0.00 | 0.00 | 64 | 1006.1 |
| 20260504223947 | 72 | 163 | 2.6 | 2.6 | 0.00 | 0.00 | 0.00 | 64 | 1006.0 |
| 20260504223443 | 72 | 183 | 0.9 | 1.7 | 0.00 | 0.00 | 0.00 | 64 | 1006.1 |
| 20260504222939 | 72 | 213 | 2.6 | 5.2 | 0.00 | 0.00 | 0.00 | 63 | 1006.1 |
| 20260504222438 | 73 | 171 | 0.0 | 0.9 | 0.00 | 0.00 | 0.00 | 62 | 1006.2 |
| 20260504221935 | 73 | 237 | 0.0 | 0.9 | 0.00 | 0.00 | 0.00 | 61 | 1006.3 |
| 20260504221431 | 73 | 189 | 0.9 | 0.9 | 0.00 | 0.00 | 0.00 | 61 | 1006.2 |
| 20260504220928 | 73 | 229 | 1.7 | 1.7 | 0.00 | 0.00 | 0.00 | 62 | 1006.4 |
| 20260504220425 | 73 | 173 | 1.7 | 1.7 | 0.00 | 0.00 | 0.00 | 62 | 1006.4 |
| 20260504215922 | 73 | 216 | 3.5 | 5.2 | 0.00 | 0.00 | 0.00 | 61 | 1006.6 |
| 20260504215418 | 72 | 201 | 0.0 | 0.9 | 0.00 | 0.00 | 0.00 | 62 | 1006.6 |
| 20260504214915 | 73 | 258 | 4.3 | 7.0 | 0.00 | 0.00 | 0.00 | 61 | 1006.7 |
| 20260504214412 | 73 | 180 | 1.7 | 2.6 | 0.00 | 0.00 | 0.00 | 62 | 1006.7 |
| 20260504213908 | 73 | 199 | 0.9 | 0.9 | 0.00 | 0.00 | 0.00 | 62 | 1006.9 |
| 20260504213405 | 73 | 243 | 2.6 | 4.3 | 0.00 | 0.00 | 0.00 | 61 | 1006.8 |
| 20260504212902 | 73 | 234 | 4.3 | 7.0 | 0.00 | 0.00 | 0.00 | 61 | 1006.8 |
| 20260504212357 | 73 | 247 | 0.9 | 0.9 | 0.00 | 0.00 | 0.00 | 62 | 1006.9 |
| 20260504211855 | 74 | 239 | 2.6 | 5.2 | 0.00 | 0.00 | 0.00 | 61 | 1007.0 |
| 20260504211351 | 75 | 200 | 0.9 | 1.7 | 0.00 | 0.00 | 0.00 | 61 | 1006.9 |
| 20260504210849 | 75 | 227 | 1.7 | 1.7 | 0.00 | 0.00 | 0.00 | 60 | 1006.9 |
| 20260504210345 | 75 | 259 | 5.2 | 7.0 | 0.00 | 0.00 | 0.00 | 58 | 1007.1 |
| 20260504205843 | 74 | 207 | 0.9 | 2.6 | 0.00 | 0.00 | 0.00 | 62 | 1007.0 |
| 20260504205341 | 74 | 229 | 2.6 | 2.6 | 0.00 | 0.00 | 0.00 | 62 | 1006.8 |
| 20260504204838 | 74 | 219 | 4.3 | 9.6 | 0.00 | 0.00 | 0.00 | 61 | 1006.9 |
| 20260504204337 | 75 | 114 | 2.6 | 4.3 | 0.00 | 0.00 | 0.00 | 60 | 1006.9 |
| 20260504203836 | 73 | 176 | 2.6 | 2.6 | 0.00 | 0.00 | 0.00 | 64 | 1007.1 |
| 20260504203332 | 73 | 188 | 2.6 | 4.3 | 0.00 | 0.00 | 0.00 | 63 | 1006.9 |
| 20260504202828 | 74 | 251 | 2.6 | 5.2 | 0.00 | 0.00 | 0.00 | 63 | 1007.0 |
| 20260504202325 | 74 | 200 | 4.3 | 6.1 | 0.00 | 0.00 | 0.00 | 62 | 1007.3 |
| 20260504201822 | 73 | 195 | 0.9 | 1.7 | 0.00 | 0.00 | 0.00 | 63 | 1007.3 |
| 20260504201319 | 73 | 145 | 2.6 | 2.6 | 0.00 | 0.00 | 0.00 | 65 | 1007.2 |
| 20260504200817 | 72 | 198 | 2.6 | 2.6 | 0.00 | 0.00 | 0.00 | 66 | 1007.9 |
| 20260504200313 | 71 | 205 | 3.5 | 5.2 | 0.00 | 0.00 | 0.00 | 66 | 1008.1 |
| 20260504195809 | 70 | 177 | 0.9 | 1.7 | 0.00 | 0.00 | 0.00 | 68 | 1008.2 |
| 20260504195305 | 69 | 236 | 0.9 | 0.9 | 0.00 | 0.00 | 0.00 | 69 | 1008.1 |
| 20260504194802 | 69 | 159 | 0.9 | 1.7 | 0.00 | 0.00 | 0.00 | 69 | 1008.4 |
| 20260504194258 | 68 | 196 | 0.9 | 1.7 | 0.00 | 0.00 | 0.00 | 70 | 1008.7 |
| 20260504193754 | 68 | 197 | 1.7 | 1.7 | 0.00 | 0.00 | 0.00 | 70 | 1008.5 |
| 20260504193252 | 68 | 110 | 0.9 | 0.9 | 0.00 | 0.00 | 0.00 | 71 | 1008.6 |
| 20260504192750 | 68 | 192 | 0.9 | 0.9 | 0.00 | 0.00 | 0.00 | 69 | 1008.8 |
| 20260504192248 | 68 | 197 | 1.7 | 1.7 | 0.00 | 0.00 | 0.00 | 69 | 1008.6 |
| 20260504191747 | 68 | 227 | 1.7 | 2.6 | 0.00 | 0.00 | 0.00 | 68 | 1008.5 |
| 20260504191243 | 68 | 211 | 2.6 | 2.6 | 0.00 | 0.00 | 0.00 | 68 | 1008.6 |
| 20260504190739 | 68 | 269 | 2.6 | 4.3 | 0.00 | 0.00 | 0.00 | 67 | 1008.2 |
| 20260504190235 | 69 | 168 | 2.6 | 4.3 | 0.00 | 0.00 | 0.00 | 66 | 1008.2 |
| 20260504185732 | 69 | 221 | 4.3 | 7.0 | 0.00 | 0.00 | 0.00 | 67 | 1007.9 |
| 20260504185229 | 70 | 265 | 5.2 | 7.0 | 0.00 | 0.00 | 0.00 | 64 | 1007.6 |
| 20260504184725 | 71 | 308 | 4.3 | 7.8 | 0.00 | 0.00 | 0.00 | 65 | 1007.6 |
| 20260504184221 | 70 | 336 | 4.3 | 5.2 | 0.00 | 0.00 | 0.00 | 67 | 1007.5 |
| 20260504183717 | 70 | 220 | 2.6 | 4.3 | 0.00 | 0.00 | 0.00 | 68 | 1007.5 |
| 20260504183214 | 70 | 172 | 1.7 | 2.6 | 0.00 | 0.00 | 0.00 | 69 | 1007.9 |
| 20260504182712 | 70 | 185 | 1.7 | 1.7 | 0.00 | 0.00 | 0.00 | 69 | 1008.0 |
| 20260504182210 | 69 | 164 | 2.6 | 2.6 | 0.00 | 0.00 | 0.00 | 68 | 1007.9 |
| 20260504181707 | 69 | 167 | 0.0 | 0.9 | 0.00 | 0.00 | 0.00 | 69 | 1007.9 |
| 20260504181204 | 69 | 206 | 0.9 | 1.7 | 0.00 | 0.00 | 0.00 | 69 | 1007.6 |
| 20260504180703 | 68 | 111 | 0.9 | 0.9 | 0.00 | 0.00 | 0.00 | 68 | 1007.9 |
| 20260504180201 | 69 | 183 | 4.3 | 5.2 | 0.00 | 0.00 | 0.00 | 68 | 1007.5 |
| 20260504175658 | 69 | 147 | 2.6 | 2.6 | 0.00 | 0.00 | 0.00 | 67 | 1007.5 |
| 20260504175154 | 69 | 210 | 1.7 | 1.7 | 0.00 | 0.00 | 0.00 | 68 | 1007.9 |
| 20260504174653 | 68 | 248 | 2.6 | 4.3 | 0.00 | 0.00 | 0.00 | 68 | 1007.7 |
| 20260504174149 | 68 | 165 | 0.9 | 1.7 | 0.00 | 0.00 | 0.00 | 68 | 1008.0 |
| 20260504173646 | 68 | 185 | 2.6 | 4.3 | 0.00 | 0.00 | 0.00 | 67 | 1008.1 |
| 20260504173144 | 68 | 175 | 7.0 | 9.6 | 0.00 | 0.00 | 0.00 | 67 | 1007.9 |
| 20260504172640 | 67 | 167 | 4.3 | 7.8 | 0.00 | 0.00 | 0.00 | 68 | 1007.7 |
| 20260504172137 | 67 | 226 | 2.6 | 2.6 | 0.00 | 0.00 | 0.00 | 68 | 1008.2 |
| 20260504171633 | 67 | 143 | 1.7 | 2.6 | 0.00 | 0.00 | 0.00 | 68 | 1008.3 |
| 20260504171131 | 68 | 130 | 2.6 | 2.6 | 0.00 | 0.00 | 0.00 | 68 | 1008.2 |
| 20260504170626 | 68 | 166 | 1.7 | 1.7 | 0.00 | 0.00 | 0.00 | 67 | 1008.5 |
| 20260504170124 | 68 | 13 | 3.5 | 4.3 | 0.00 | 0.00 | 0.00 | 67 | 1008.4 |
| 20260504151004 | 65 | 157 | 1.7 | 1.7 | 0.00 | 0.00 | 0.00 | 71 | 1009.0 |
| 20260504150501 | 64 | 94 | 3.5 | 6.1 | 0.00 | 0.00 | 0.00 | 70 | 1008.9 |
| 20260504140927 | 60 | 198 | 0.9 | 1.7 | 0.00 | 0.00 | 0.00 | 75 | 1009.3 |
| 20260504140424 | 59 | 159 | 2.6 | 4.3 | 0.00 | 0.00 | 0.00 | 76 | 1009.3 |
| 20260504130349 | 56 | 145 | 1.7 | 2.6 | 0.00 | 0.00 | 0.00 | 76 | 1009.5 |
| 20260504120311 | 53 | 163 | 0.0 | 0.9 | 0.00 | 0.00 | 0.00 | 77 | 1009.4 |
| 20260504110235 | 49 | 196 | 1.7 | 2.6 | 0.00 | 0.00 | 0.00 | 79 | 1009.4 |
| 20260504100159 | 50 | 199 | 0.9 | 0.9 | 0.00 | 0.00 | 0.00 | 77 | 1009.4 |
| 20260504090117 | 50 | 214 | 0.9 | 1.7 | 0.00 | 0.00 | 0.00 | 76 | 1010.0 |
| 20260504081547 | 50 | 212 | 2.6 | 4.3 | 0.00 | 0.00 | 0.00 | 75 | 1010.1 |
| 20260504081043 | 49 | 192 | 1.7 | 2.6 | 0.00 | 0.00 | 0.00 | 76 | 1010.3 |
| 20260504080540 | 49 | 264 | 1.7 | 2.6 | 0.00 | 0.00 | 0.00 | 76 | 1010.4 |
| 20260504050347 | 51 | 168 | 0.9 | 0.9 | 0.00 | 0.00 | 0.00 | 72 | 1012.2 |
| 20260504045843 | 51 | 175 | 0.9 | 1.7 | 0.00 | 0.00 | 0.00 | 72 | 1011.8 |
| 20260504045338 | 51 | 124 | 0.9 | 1.7 | 0.00 | 0.00 | 0.00 | 71 | 1012.1 |
| 20260504044836 | 51 | 174 | 0.0 | 0.0 | 0.00 | 0.00 | 0.00 | 72 | 1012.1 |
| 20260504044333 | 51 | 240 | 1.7 | 2.6 | 0.00 | 0.00 | 0.00 | 72 | 1012.0 |
| 20260504043830 | 51 | 179 | 2.6 | 2.6 | 0.00 | 0.00 | 0.00 | 71 | 1012.1 |
| 20260504043327 | 51 | 164 | 1.7 | 1.7 | 0.00 | 0.00 | 0.00 | 72 | 1012.3 |
| 20260504042824 | 51 | 177 | 0.9 | 0.9 | 0.00 | 0.00 | 0.00 | 72 | 1012.4 |
| 20260504042321 | 52 | 175 | 0.0 | 0.9 | 0.00 | 0.00 | 0.00 | 72 | 1012.3 |
| 20260504041817 | 52 | 165 | 2.6 | 2.6 | 0.00 | 0.00 | 0.00 | 71 | 1012.4 |
| 20260504041313 | 51 | 152 | 0.9 | 0.9 | 0.00 | 0.00 | 0.00 | 72 | 1012.4 |
| 20260504040810 | 51 | 201 | 0.9 | 0.9 | 0.00 | 0.00 | 0.00 | 72 | 1012.6 |
| 20260504040307 | 51 | 167 | 0.9 | 0.9 | 0.00 | 0.00 | 0.00 | 73 | 1012.7 |
| 20260504035803 | 51 | 178 | 0.0 | 0.0 | 0.00 | 0.00 | 0.00 | 73 | 1012.5 |
| 20260504035300 | 50 | 193 | 1.7 | 1.7 | 0.00 | 0.00 | 0.00 | 73 | 1012.6 |
| 20260504034757 | 50 | 199 | 1.7 | 1.7 | 0.00 | 0.00 | 0.00 | 74 | 1012.7 |
| 20260504034255 | 50 | 181 | 0.9 | 0.9 | 0.00 | 0.00 | 0.00 | 73 | 1012.8 |
| 20260504033752 | 50 | 184 | 0.0 | 0.9 | 0.00 | 0.00 | 0.00 | 73 | 1012.9 |
| 20260504033250 | 51 | 179 | 0.0 | 0.9 | 0.00 | 0.00 | 0.00 | 72 | 1012.7 |
| 20260504032746 | 51 | 179 | 0.9 | 0.9 | 0.00 | 0.00 | 0.00 | 71 | 1012.6 |
| 20260504032243 | 51 | 212 | 0.9 | 0.9 | 0.00 | 0.00 | 0.00 | 71 | 1012.8 |
| 20260504031740 | 51 | 180 | 0.9 | 0.9 | 0.00 | 0.00 | 0.00 | 70 | 1012.7 |
| 20260504031238 | 52 | 214 | 0.9 | 1.7 | 0.00 | 0.00 | 0.00 | 70 | 1012.6 |
| 20260504030733 | 52 | 175 | 0.9 | 1.7 | 0.00 | 0.00 | 0.00 | 69 | 1013.0 |
| 20260504030231 | 52 | 199 | 1.7 | 1.7 | 0.00 | 0.00 | 0.00 | 68 | 1013.1 |
| 20260504025727 | 52 | 190 | 0.9 | 0.9 | 0.00 | 0.00 | 0.00 | 69 | 1013.1 |
| 20260504025224 | 52 | 171 | 0.9 | 0.9 | 0.00 | 0.00 | 0.00 | 70 | 1012.8 |
| 20260504024721 | 53 | 203 | 0.9 | 0.9 | 0.00 | 0.00 | 0.00 | 69 | 1013.2 |
| 20260504024217 | 53 | 186 | 0.9 | 0.9 | 0.00 | 0.00 | 0.00 | 66 | 1013.1 |
| 20260504023714 | 53 | 198 | 0.9 | 1.7 | 0.00 | 0.00 | 0.00 | 65 | 1013.1 |
| 20260504023210 | 53 | 189 | 0.9 | 1.7 | 0.00 | 0.00 | 0.00 | 67 | 1012.9 |
| 20260504022707 | 53 | 175 | 0.9 | 1.7 | 0.00 | 0.00 | 0.00 | 67 | 1012.9 |
| 20260504022203 | 53 | 153 | 1.7 | 1.7 | 0.00 | 0.00 | 0.00 | 68 | 1013.1 |
| 20260504021701 | 53 | 161 | 1.7 | 1.7 | 0.00 | 0.00 | 0.00 | 67 | 1012.8 |
| 20260504021157 | 53 | 173 | 1.7 | 1.7 | 0.00 | 0.00 | 0.00 | 68 | 1013.1 |
| 20260504020654 | 53 | 166 | 1.7 | 1.7 | 0.00 | 0.00 | 0.00 | 68 | 1013.0 |
| 20260504020150 | 53 | 164 | 1.7 | 1.7 | 0.00 | 0.00 | 0.00 | 68 | 1013.1 |
| 20260504015647 | 52 | 158 | 0.9 | 1.7 | 0.00 | 0.00 | 0.00 | 69 | 1013.0 |
| 20260504015143 | 51 | 170 | 0.0 | 0.0 | 0.00 | 0.00 | 0.00 | 72 | 1013.0 |
| 20260504014639 | 52 | 178 | 0.0 | 0.9 | 0.00 | 0.00 | 0.00 | 74 | 1013.1 |
| 20260504014136 | 51 | 141 | 0.9 | 1.7 | 0.00 | 0.00 | 0.00 | 75 | 1013.0 |
| 20260504013634 | 51 | 177 | 0.0 | 0.0 | 0.00 | 0.00 | 0.00 | 74 | 1013.0 |
| 20260504013131 | 51 | 175 | 0.0 | 0.0 | 0.00 | 0.00 | 0.00 | 75 | 1012.8 |
| 20260504012628 | 51 | 175 | 0.0 | 0.0 | 0.00 | 0.00 | 0.00 | 75 | 1013.0 |
| 20260504012126 | 51 | 176 | 0.0 | 0.0 | 0.00 | 0.00 | 0.00 | 75 | 1013.0 |
| 20260504011622 | 51 | 176 | 0.0 | 0.0 | 0.00 | 0.00 | 0.00 | 75 | 1013.2 |
| 20260504011119 | 51 | 167 | 0.0 | 0.0 | 0.00 | 0.00 | 0.00 | 74 | 1012.9 |
| 20260504010615 | 51 | 164 | 0.0 | 0.0 | 0.00 | 0.00 | 0.00 | 74 | 1012.8 |